This is the latest recevied weather packets stored in our database for station/object N9DMT-13. If no packets are shown the sender has not sent any weather packets the latest 1 day(s).
| Time | Temp. | Humidity | Pressure | Rain* | Wind** | Luminosity | Snow |
|---|---|---|---|---|---|---|---|
| 1836274559 | - | - | - | - | 0 m/s | - | - |
| 1836274410 | - | - | - | - | 0 m/s | - | - |
| 1836274258 | - | - | - | - | 0 m/s | - | - |
| 1836274109 | - | - | - | - | 0 m/s | - | - |
| 1836273957 | - | - | - | - | 0 m/s | - | - |
| 1778040275 | 2.22° C | 79% | 979.9 hPa | 0 mm | 0 m/s | - | - |
| 1778039974 | 2.22° C | 78% | 979.8 hPa | 0 mm | 0 m/s | - | - |
| 1778039373 | 2.78° C | 77% | 979.5 hPa | 0 mm | 0 m/s | - | - |
| 1778039072 | 2.78° C | 76% | 979.5 hPa | 0 mm | 0 m/s | - | - |
| 1778038771 | 2.78° C | 75% | 979.7 hPa | 0 mm | 0 m/s | - | - |
| 1778038470 | 3.33° C | 76% | 979.7 hPa | 0 mm | 0 m/s | - | - |
| 1778038169 | 3.33° C | 74% | 979.7 hPa | 0 mm | 0 m/s | - | - |
| 1778037867 | 3.33° C | 75% | 979.6 hPa | 0 mm | 0 m/s | - | - |
| 1778037567 | 3.33° C | 74% | 979.6 hPa | 0 mm | 0 m/s | - | - |
| 1778037266 | 3.89° C | 73% | 979.6 hPa | 0 mm | 0 m/s | - | - |
| 1778036965 | 3.89° C | 72% | 979.6 hPa | 0 mm | 0 m/s | - | - |
| 1778036664 | 3.89° C | 71% | 979.7 hPa | 0 mm | 0 m/s | - | - |
| 1778036364 | 4.44° C | 71% | 979.8 hPa | 0 mm | 0 m/s | - | - |
| 1778036062 | 4.44° C | 70% | 979.5 hPa | 0 mm | 0 m/s | - | - |
| 1778035761 | 4.44° C | 67% | 979.5 hPa | 0 mm | 0 m/s | - | - |
| 1778035461 | 5° C | 69% | 979.5 hPa | 0 mm | 0 m/s | - | - |
| 1778035160 | 5° C | 68% | 979.5 hPa | 0 mm | 0 m/s | - | - |
| 1778034859 | 5° C | 67% | 979.4 hPa | 0 mm | 0 m/s | - | - |
| 1778034558 | 5.56° C | 64% | 979.3 hPa | 0 mm | 0 m/s | - | - |
| 1778034257 | 5.56° C | 67% | 979.3 hPa | 0 mm | 0 m/s | - | - |
* Rain since midnight (hover to see other rain measurements)
** Current wind speed in m/s (hover to see current wind gust speed)